Wildwood, NJ

7:09 AM EDT on June 27, 2017 (GMT -0400)
Cape May County

Weather History for KWWD - September, 2013

Change the Weather History Date:

Tuesday, September 17, 2013

  Actual Average Record
Temperature  
Mean Temperature 55 °F -  
Max Temperature 62 °F 73 °F 86 °F (2005)
Min Temperature 48 °F 59 °F 48 °F (2001)
Degree Days  
Heating Degree Days 10    
Growing Degree Days 5 (Base 50)    
Moisture  
Dew Point 43 °F    
Average Humidity 60    
Maximum Humidity 82    
Minimum Humidity 45    
Precipitation  
Precipitation 0.00 in - - ()
Sea Level Pressure  
Sea Level Pressure 30.34 in    
Wind  
Wind Speed 11 mph (NE)    
Max Wind Speed 17 mph    
Max Gust Speed 24 mph    
Visibility 10 miles    
Events      
Averages and records for this station are not official NWS values.
T = Trace of Precipitation, MM = Missing Value Source: NWS Daily Summary

Daily Weather History Graph

Daily Weather History Graph

Search for Another Location

Airport or City:

Trip Planner

Search our weather history database for the weather conditions in past years. The results will help you decide how hot, cold, wet, or windy it might be!

Date:

Astronomy

Sep. 17, 2013 Rise Set
Actual Time 6:43 AM EDT 7:04 PM EDT
Civil Twilight 6:16 AM EDT 7:31 PM EDT
Nautical Twilight 5:44 AM EDT 8:02 PM EDT
Astronomical Twilight 5:12 AM EDT 8:34 PM EDT
Moon 5:49 PM EDT (9/17) 4:35 AM EDT (9/17)
Length of Visible Light 13h 14m
Length of Day
12h 21m
Waxing Gibbous, 96% of the Moon is Illuminated
Sep 17
Waxing Gibbous
Sep 19
Full
Sep 26
Last Quarter
Oct 4
New
Oct 11
First Quarter

Hourly Weather History & Observations

Time (EDT) Temp. Dew Point Humidity Pressure Visibility Wind Dir Wind Speed Gust Speed Precip Events Conditions
12:15 AM 60.8 °F 50.0 °F 68% 30.22 in 10.0 mi North 11.5 mph 17.3 mph N/A   Clear
12:35 AM 59.0 °F 48.2 °F 67% 30.22 in 10.0 mi North 12.7 mph 17.3 mph N/A   Clear
12:55 AM 59.0 °F 48.2 °F 67% 30.23 in 10.0 mi North 12.7 mph 18.4 mph N/A   Clear
1:15 AM 59.0 °F 48.2 °F 67% 30.23 in 10.0 mi North 10.4 mph 18.4 mph N/A   Clear
1:35 AM 57.2 °F 48.2 °F 72% 30.24 in 10.0 mi North 11.5 mph - N/A   Clear
1:55 AM 57.2 °F 46.4 °F 67% 30.23 in 10.0 mi North 11.5 mph - N/A   Clear
2:15 AM 57.2 °F 46.4 °F 67% 30.24 in 10.0 mi North 13.8 mph 18.4 mph N/A   Clear
2:35 AM 57.2 °F 46.4 °F 67% 30.24 in 10.0 mi North 10.4 mph 18.4 mph N/A   Clear
2:55 AM 55.4 °F 46.4 °F 72% 30.25 in 10.0 mi North 11.5 mph 18.4 mph N/A   Clear
3:15 AM 55.4 °F 46.4 °F 72% 30.26 in 10.0 mi North 12.7 mph - N/A   Clear
3:35 AM 55.4 °F 46.4 °F 72% 30.26 in 10.0 mi North 12.7 mph - N/A   Clear
3:55 AM 55.4 °F 46.4 °F 72% 30.27 in 10.0 mi North 11.5 mph - N/A   Clear
4:15 AM 53.6 °F 46.4 °F 77% 30.27 in 10.0 mi North 10.4 mph - N/A   Clear
4:35 AM 53.6 °F 46.4 °F 77% 30.28 in 10.0 mi North 10.4 mph - N/A   Clear
4:55 AM 53.6 °F 46.4 °F 77% 30.29 in 10.0 mi North 8.1 mph - N/A   Clear
5:15 AM 53.6 °F 46.4 °F 77% 30.29 in 10.0 mi North 8.1 mph - N/A   Clear
5:35 AM 53.6 °F 44.6 °F 72% 30.30 in 10.0 mi North 10.4 mph - N/A   Clear
5:55 AM 51.8 °F 44.6 °F 76% 30.31 in 10.0 mi NNE 10.4 mph 16.1 mph N/A   Clear
6:15 AM 51.8 °F 42.8 °F 71% 30.31 in 10.0 mi North 11.5 mph - N/A   Clear
6:35 AM 51.8 °F 41.0 °F 67% 30.32 in 10.0 mi North 11.5 mph 17.3 mph N/A   Clear
6:55 AM 51.8 °F 39.2 °F 62% 30.33 in 10.0 mi NNE 11.5 mph 19.6 mph N/A   Clear
7:15 AM 51.8 °F 39.2 °F 62% 30.34 in 10.0 mi North 10.4 mph - N/A   Partly Cloudy
7:35 AM 51.8 °F 39.2 °F 62% 30.35 in 10.0 mi North 11.5 mph - N/A   Clear
7:55 AM 51.8 °F 39.2 °F 62% 30.35 in 10.0 mi North 13.8 mph - N/A   Clear
8:15 AM 51.8 °F 39.2 °F 62% 30.36 in 10.0 mi North 12.7 mph 17.3 mph N/A   Clear
8:35 AM 53.6 °F 39.2 °F 58% 30.37 in 10.0 mi NNE 13.8 mph - N/A   Clear
8:55 AM 53.6 °F 39.2 °F 58% 30.38 in 10.0 mi NNE 11.5 mph - N/A   Clear
9:15 AM 55.4 °F 39.2 °F 54% 30.39 in 10.0 mi NNE 12.7 mph - N/A   Clear
9:35 AM 57.2 °F 39.2 °F 51% 30.40 in 10.0 mi NNE 13.8 mph 19.6 mph N/A   Clear
9:55 AM 57.2 °F 39.2 °F 51% 30.40 in 10.0 mi NE 13.8 mph 19.6 mph N/A   Clear
10:15 AM 57.2 °F 39.2 °F 51% 30.40 in 10.0 mi NE 13.8 mph 19.6 mph N/A   Clear
10:35 AM 60.8 °F 41.0 °F 48% 30.41 in 10.0 mi NNE 11.5 mph 19.6 mph N/A   Clear
10:55 AM 60.8 °F 41.0 °F 48% 30.41 in 10.0 mi NNE 12.7 mph 20.7 mph N/A   Clear
11:15 AM 60.8 °F 42.8 °F 52% 30.42 in 10.0 mi NE 10.4 mph 17.3 mph N/A   Clear
11:35 AM 60.8 °F 42.8 °F 52% 30.42 in 10.0 mi NE 12.7 mph 24.2 mph N/A   Clear
11:55 AM 62.6 °F 42.8 °F 48% 30.42 in 10.0 mi ENE 11.5 mph 20.7 mph N/A   Clear
12:15 PM 62.6 °F 42.8 °F 48% 30.42 in 10.0 mi NE 16.1 mph 23.0 mph N/A   Mostly Cloudy
12:35 PM 62.6 °F 42.8 °F 48% 30.42 in 10.0 mi ENE 13.8 mph 24.2 mph N/A   Scattered Clouds
12:55 PM 62.6 °F 42.8 °F 48% 30.41 in 10.0 mi NE 16.1 mph 21.9 mph N/A   Clear
1:15 PM 62.6 °F 42.8 °F 48% 30.41 in 10.0 mi NE 17.3 mph 23.0 mph N/A   Clear
1:35 PM 62.6 °F 42.8 °F 48% 30.40 in 10.0 mi ENE 11.5 mph 21.9 mph N/A   Clear
1:55 PM 62.6 °F 42.8 °F 48% 30.39 in 10.0 mi NE 10.4 mph 19.6 mph N/A   Clear
2:15 PM 62.6 °F 42.8 °F 48% 30.39 in 10.0 mi ENE 15.0 mph 19.6 mph N/A   Clear
2:35 PM 62.6 °F 42.8 °F 48% 30.38 in 10.0 mi NE 12.7 mph 20.7 mph N/A   Clear
2:55 PM 62.6 °F 42.8 °F 48% 30.38 in 10.0 mi ENE 15.0 mph 20.7 mph N/A   Clear
3:15 PM 62.6 °F 42.8 °F 48% 30.37 in 10.0 mi NE 16.1 mph 20.7 mph N/A   Clear
3:35 PM 62.6 °F 42.8 °F 48% 30.37 in 10.0 mi NE 13.8 mph 19.6 mph N/A   Clear
3:55 PM 62.6 °F 42.8 °F 48% 30.37 in 10.0 mi NE 13.8 mph 20.7 mph N/A   Clear
4:15 PM 62.6 °F 41.0 °F 45% 30.36 in 10.0 mi NE 16.1 mph 20.7 mph N/A   Clear
4:35 PM 62.6 °F 42.8 °F 48% 30.36 in 10.0 mi ENE 16.1 mph 19.6 mph N/A   Clear
4:55 PM 60.8 °F 42.8 °F 52% 30.36 in 10.0 mi ENE 12.7 mph 21.9 mph N/A   Clear
5:15 PM 60.8 °F 42.8 °F 52% 30.36 in 10.0 mi ENE 15.0 mph 19.6 mph N/A   Clear
5:35 PM 60.8 °F 42.8 °F 52% 30.37 in 10.0 mi ENE 11.5 mph 19.6 mph N/A   Clear
5:55 PM 60.8 °F 42.8 °F 52% 30.37 in 10.0 mi ENE 11.5 mph 17.3 mph N/A   Clear
6:15 PM 59.0 °F 41.0 °F 51% 30.36 in 10.0 mi ENE 12.7 mph 17.3 mph N/A   Clear
6:35 PM 57.2 °F 42.8 °F 59% 30.35 in 10.0 mi ENE 11.5 mph - N/A   Clear
6:55 PM 57.2 °F 42.8 °F 59% 30.35 in 10.0 mi ENE 10.4 mph - N/A   Clear
7:15 PM 57.2 °F 42.8 °F 59% 30.35 in 10.0 mi ENE 8.1 mph - N/A   Clear
7:35 PM 55.4 °F 42.8 °F 63% 30.35 in 10.0 mi ENE 10.4 mph - N/A   Clear
7:55 PM 55.4 °F 42.8 °F 63% 30.35 in 10.0 mi ENE 9.2 mph - N/A   Clear
8:15 PM 55.4 °F 42.8 °F 63% 30.35 in 10.0 mi ENE 10.4 mph - N/A   Clear
8:35 PM 55.4 °F 42.8 °F 63% 30.35 in 10.0 mi ENE 6.9 mph - N/A   Clear
8:55 PM 55.4 °F 42.8 °F 63% 30.35 in 10.0 mi ENE 8.1 mph - N/A   Clear
9:15 PM 55.4 °F 42.8 °F 63% 30.36 in 10.0 mi ENE 8.1 mph - N/A   Clear
9:35 PM 55.4 °F 42.8 °F 63% 30.36 in 10.0 mi ENE 6.9 mph - N/A   Clear
9:55 PM 55.4 °F 42.8 °F 63% 30.36 in 10.0 mi ENE 5.8 mph - N/A   Clear
10:15 PM 55.4 °F 42.8 °F 63% 30.36 in 10.0 mi ENE 4.6 mph - N/A   Clear
10:35 PM 55.4 °F 42.8 °F 63% 30.36 in 10.0 mi ENE 4.6 mph - N/A   Clear
10:55 PM 55.4 °F 42.8 °F 63% 30.36 in 10.0 mi ENE 4.6 mph - N/A   Clear
11:15 PM 51.8 °F 42.8 °F 71% 30.36 in 10.0 mi Calm Calm - N/A   Clear
11:35 PM 48.2 °F 42.8 °F 82% 30.36 in 10.0 mi Calm Calm - N/A   Clear
11:55 PM 48.2 °F 42.8 °F 82% 30.36 in 10.0 mi Calm Calm - N/A   Clear